Regional Weather Roundup
Issued by NWS Upton, NY

Current Version | Previous Version | Text Only | Print | Product List | Glossary On
Versions: 1 2 3 4 5 6 7 8 9 10 11 12 13 14 15 16 17 18 19 20 21 22 23 24 25 26 27 28 29 30 31 32 33 34 35 36
000
ASUS41 KOKX 230205
RWROKX
REGIONAL WEATHER ROUNDUP
NATIONAL WEATHER SERVICE NEW YORK NY
1000 PM EDT WED OCT 22 2014

NOTE: "FAIR" INDICATES FEW OR NO CLOUDS BELOW 12,000 FEET WITH NO
SIGNIFICANT WEATHER AND/OR OBSTRUCTIONS TO VISIBILITY.

NYZ071-072-176-178-NJZ106-104-230300-
NEW YORK CITY METRO AREA


CITY           SKY/WX    TMP DP  RH WIND       PRES   REMARKS
CENTRAL PARK   CLOUDY    51  48  89 N8        29.77F
LAGUARDIA APRT LGT RAIN  52  48  86 N20G31    29.74F
KENNEDY INTL   LGT RAIN  53  48  83 N18G26    29.73F
NEWARK/LIBERTY RAIN      52  48  86 N25G33    29.76F
BRNX BOT. GARD   N/A     50  48  93 NW10      29.74F
TETERBORO      LGT RAIN  52  47  83 N15G29    29.75F
$$

NYZ177-179-078>081-230300-
LONG ISLAND NEW YORK

CITY           SKY/WX    TMP DP  RH WIND       PRES   REMARKS
FARMINGDALE    HVY RAIN  52  48  86 N17G32    29.72S FOG
ISLIP          HVY RAIN  51  48  89 N22G35    29.68S FOG
SHIRLEY        LGT RAIN  51  48  89 N20G35    29.68F
WESTHAMPTON    RAIN      52  49  89 N21G30    29.66F
MONTAUK POINT    N/A     58  55  90 NE14G29   29.66R
$$

NYZ052-065-067-230300-
HUDSON VALLEY

CITY           SKY/WX    TMP DP  RH WIND       PRES   REMARKS
WHITE PLAINS   RAIN      50  47  89 N21G33    29.72F
NEWBURGH       LGT RAIN  50  48  93 N21G32    29.85F FOG
MONTGOMERY     LGT RAIN  51  47  86 N16G25    29.84F
POUGHKEEPSIE   LGT RAIN  50  46  86 N18G28    29.83F
ALBANY         CLOUDY    51  44  77 N14G24    29.96F
$$

NJZ001-105-106-008-010-013-015-019>022-104-230300-
NEW JERSEY

CITY           SKY/WX    TMP DP  RH WIND       PRES   REMARKS
NEWARK/LIBERTY RAIN      52  48  86 N25G33    29.76F
TETERBORO      LGT RAIN  52  47  83 N15G29    29.75F
CALDWELL       LGT RAIN  51  32  48 N10G20    29.79F
MORRISTOWN     LGT RAIN  54  50  87 NE12G28   29.81S
SOMERVILLE     LGT RAIN  53  48  83 N10       29.79F
SUSSEX         LGT RAIN  53  47  79 N7        29.85F
ANDOVER          N/A     50  48  93 VRB7      29.84F
TRENTON        LGT RAIN  52  48  86 N15G23    29.80F
MILLVILLE      LGT RAIN  53  50  89 NW14G23   29.80S
ATLANTIC CITY  LGT RAIN  52  50  93 NW17G26   29.76S
WRIGHTSTOWN    RAIN      52  51  97 NW13G25   29.76F
TOMS RIVER     CLOUDY    52  48  87 N12G23    29.75F
BELMAR         CLOUDY    52  45  76 N18G26    29.74F
$$

PAZ047>061-062-071-230300-
EASTERN PENNSYLVANIA

CITY           SKY/WX    TMP DP  RH WIND       PRES   REMARKS
PHILADELPHIA   LGT RAIN  53  49  86 NW16G31   29.83F
ALLENTOWN      CLOUDY    54  46  74 N18G24    29.87S
SCRANTON       CLOUDY    49  45  86 N12G22    29.94F
$$

CTZ002-004>006-009-010-012-RIZ004-006-007-MAZ004-011-015-230300-
SOUTHERN NEW ENGLAND
 IN CT

CITY           SKY/WX    TMP DP  RH WIND       PRES   REMARKS
BRADLEY INTL   LGT RAIN  50  45  83 N26G43    29.76F
HARTFORD       TSTM      49  46  90 N17G30    29.79S
DANBURY        RAIN      50  44  80 N14G28    29.78F
WTRBRY/OXFORD  CLOUDY    48  41  76 N30G38    29.74F
BRIDGEPORT     HVY RAIN  50  47  89 N20G39    29.70F FOG
MERIDEN        RAIN      49  45  86 N17G38    29.76R FOG
NEW HAVEN      HVY RAIN  51  47  86 N22G43    29.72R FOG
CHESTER        LGT RAIN  48  46  93 NE14G24   29.74R
GROTON         TSTM      53  50  89 NE26G36   29.70R
WILLIMANTIC    RAIN      51  47  86 NE21G36   29.76R FOG

 IN RI

CITY           SKY/WX    TMP DP  RH WIND       PRES   REMARKS
PROVIDENCE     LGT RAIN  54  51  90 NE16G30   29.75F
BLOCK ISLAND   CLOUDY    57  54  88 NE20G29   29.64R THUNDER
WESTERLY       LGT RAIN  54  51  90 N20G28    29.70R

 IN MA

CITY           SKY/WX    TMP DP  RH WIND       PRES   REMARKS
BOSTON         HVY RAIN  51  50  96 NE35G52   29.79F FOG
WORCESTER      RAIN      45  44  97 NE21G38   29.81F FOG
WESTFIELD      CLOUDY    49  46  90 N15G30    29.84F
PROVINCETOWN   CLOUDY    55  54  94 NE28G41   29.76S
NANTUCKET      CLOUDY    60  59  96 NE16G23   29.67S
$$

ANZ330-335-338-340-345-350-353-355-230300-
COASTAL MARINE OBSERVATIONS


STATION/POSITION TIME  SKY/WX   TEMP    WIND        PRES    VSBY  WAVE
                                AIR SEA DIR/SP/G                  HT/PER
                 (UTC)          (F)     (DEG/KT/KT) (MB)    (MI)  (FT/S)
NY HARB ENTRANCE NOT AVBL
4S FIRE IS       0200               63                N/A           8/ 9
20S FIRE ISLAND  0200            55 64   10/ 33/ 41 1002.0         10/ 8
23SW MTP         0200                                 N/A           8/ 7
HUDSON CANYON    0200            61 67  320/ 14/ 21  999.5         12/ 9
EXECUTION ROCKS  0200            54 63  340/ 21/ 27   N/A
WESTERN LI SOUND 0200            54      10/ 21/ 29   N/A           4/ 6
CENTRAL LI SOUND 0100            53 63   20/ 27/ 37   N/A           5/ 4
EASTERN LI SOUND 0100            55 63   40/ 29/ 47   N/A
ROBBINS REEF     0200            52     350/ 21/ 26 1006.2
$$


>>>>>>>>>>>>>>>>>>>>>>>>>>>> KEY <<<<<<<<<<<<<<<<<<<<<<<<<<<
>                                                          <
>     SKY/WX - SKY CONDITION/PRESENT WEATHER               <
>     TMP    - TEMPERATURE IN FAHRENHEIT                   <
>     DP     - DEWPOINT IN FAHRENHEIT                      <
>     RH     - RELATIVE HUMIDITY IN PERCENT                <
>     WIND   - DIRECTION AND SPEED IN MPH                  <
>     PRES   - MEAN SEA LEVEL PRESSURE IN INCHES OF HG     <
>     WCI    - WIND CHILL INDEX                            <
>     VSB    - VISIBILITY IN MILES                         <
>     HX     - HEAT INDEX                                  <
>     TC     - TEMPERATURE IN CELSIUS                      <
>     VRB    - VARIABLE WIND DIRECTION                     <
>                                                          <
>>>>>>>>>>>>>>>>>>>>>>>>>>>> KEY <<<<<<<<<<<<<<<<<<<<<<<<<<<





USA.gov is the U.S. government's official web portal to all federal, state and local government web resources and services.